Location: Unspecified
(0.0000°N, 0.0000°E)
Time: 01:57:10
(UTC+00:00)

Explorer 11/Cluster Stage 4 - Pass Details

Date: 26 April 2026
Orbit: 463 x 1174 km, 28.8° (Epoch: 15 May)

Event Time Altitude Azimuth Distance (km) Brightness Sun altitude
Exits shadow 03:55:49 13° 22° (NNE) 1,499 8.4 -29.6°
Drops below altitude 10° 03:56:19 10° 27° (NNE) 1,659 8.7 -29.5°
Sets 03:58:54 0° 41° (NE) 2,611 10.1 -28.8°
